DMSP 5D-2 F11 DEB, 28327

Orbit data source: Space-Track

DMSP 5D-2 F11 DEB, 28327 is space debris in SSO originally from a launch on Thu, 28 Nov 1991 UTC launched from the Air Force Western Test Range (AFWTR). Debris objects in space refer to the collection of defunct objects orbiting the Earth. Examples of debris include non-operational satellites, rocket bodies, and fragments generated from explosions, collisions, or faulty payload assembly.

Loading next visibility...
Identifier
28327, 1991-082AQ
Orbit
SSO
Country
Flag of USUS
Related business
Manufacturer
Unknown
Mission
Spacecraft
Bus & Motor
Unknown
Mass
Unknown
Launch date (UTC)
1991-11-28 (35 years ago)
Launch vehicle
Unknown
Launch site
Air Force Western Test Range (AFWTR)
Object type
Payload
Rocket body
Debris
Shape & HBR
Unknown shape, 0.1 m
Radar Cross Section
Small (<0.1 m²)

Expand to show TLE details & history
Last TLE update: 3 days ago

TLE from 3 days ago
0 DMSP 5D-2 F11 DEB
1 28327U 91082AQ  26206.13464303  .00006436  00000-0  16550-2 0  9990
2 28327  98.6723 299.6715 0021744 210.9781 266.3150 14.50369351682066
Epoch: 2026-07-25T03:13Z
TLE epoch observation values (Epoch: 2026-07-25T03:13:53.157Z)
Latitude
61.79479°
Longitude
144.78072°
Altitude
736.023 km
Speed
7.492 km/s
True Right ascension
09h 04m 24s
True Declination
61° 39' 03"
Sunlit
Object was in daylight at epoch
Visualization orbit readout
Latitude
Unknown
Longitude
Unknown
Altitude
Unknown
Speed
Unknown
Apparent Right ascension
Unknown
Apparent Declination
Unknown
Sunlit
N/A
Visualization observer readout
Local Sidereal Time
15:13:33
Azimuth
Unknown
Elevation
Unknown
Doppler factor
Unknown
Orbital elements
Apogee altitude
736.996 km
Perigee altitude
706.121 km
Semi-major axis
7,099.696 km
Eccentricity
0.00217
Inclination
98.6723°
RAAN
299.6715°
Arg. of periapsis
210.9781°
True anomaly
266.06639°
Mean anomaly
266.315°
Eccentric anomaly
266.19069°
Mean motion
3.62814 °/min
Orbital period
99.22 mins
BSTAR
0.001655
Loading maneuver chart data...
Computing Atmospheric mass density...

Documentation

Showing up to 5 results
|